This is the latest recevied weather packets stored in our database for station/object N1YZ. If no packets are shown the sender has not sent any weather packets the latest 10 day(s).
| Time | Temp. | Humidity | Pressure | Rain* | Wind** | Luminosity | Snow |
|---|---|---|---|---|---|---|---|
| 1777800130 | 8.33° C | 88% | 1039.1 hPa | 0 mm | - | 0 W/m² | - |
| 1777799825 | 8.33° C | 88% | 1039.4 hPa | 0 mm | - | 0 W/m² | - |
| 1777799523 | 8.33° C | 88% | 1039.3 hPa | 0 mm | - | 0 W/m² | - |
| 1777799218 | 8.33° C | 86% | 1039.2 hPa | 0 mm | - | 0 W/m² | - |
| 1777798914 | 8.89° C | 88% | 1039.2 hPa | 0 mm | - | 0 W/m² | - |
| 1777798610 | 8.89° C | 87% | 1039.2 hPa | 0 mm | - | 0 W/m² | - |
| 1777798308 | 8.89° C | 86% | 1039.5 hPa | 0 mm | - | 0 W/m² | - |
| 1777798003 | 8.89° C | 86% | 1039.3 hPa | 0 mm | - | 0 W/m² | - |
| 1777797702 | 8.89° C | 86% | 1039.3 hPa | 0 mm | - | 0 W/m² | - |
| 1777797399 | 8.89° C | 86% | 1039.3 hPa | 0 mm | - | 0 W/m² | - |
| 1777797096 | 9.44° C | 86% | 1039.3 hPa | 0 mm | - | 0 W/m² | - |
| 1777796793 | 9.44° C | 82% | 1039.2 hPa | 0 mm | - | 0 W/m² | - |
| 1777796490 | 9.44° C | 81% | 1039.2 hPa | 0 mm | - | 0 W/m² | - |
| 1777796184 | 9.44° C | 81% | 1039.1 hPa | 0 mm | - | 0 W/m² | - |
| 1777795881 | 10° C | 82% | 1038.9 hPa | 0 mm | - | 0 W/m² | - |
| 1777795577 | 10° C | 81% | 1039 hPa | 0 mm | - | 0 W/m² | - |
| 1777795274 | 10° C | 81% | 1039 hPa | 0 mm | - | 0 W/m² | - |
| 1777794971 | 10° C | 80% | 1038.8 hPa | 0 mm | - | 0 W/m² | - |
| 1777794668 | 10° C | 81% | 1038.9 hPa | 0 mm | - | 0 W/m² | - |
| 1777794363 | 10° C | 80% | 1038.9 hPa | 0 mm | - | 0 W/m² | - |
| 1777794058 | 10° C | 80% | 1038.8 hPa | 0 mm | - | 0 W/m² | - |
| 1777793755 | 10° C | 81% | 1038.7 hPa | 0 mm | - | 0 W/m² | - |
| 1777793454 | 10° C | 81% | 1038.6 hPa | 0 mm | - | 0 W/m² | - |
| 1777793151 | 10° C | 81% | 1038.8 hPa | 0 mm | - | 0 W/m² | - |
| 1777792848 | 10° C | 82% | 1038.6 hPa | 0 mm | - | 0 W/m² | - |
* Rain latest hour (hover to see other rain measurements)
** Current wind speed in m/s (hover to see current wind gust speed)